When you browse on this site, cookies collect data to enhance your experience and personalize the content and advertising you see.
Visit our Privacy Policy to learn more. By continuing to use the site, you agree to this use of cookies and data.
  • In Hungary
  • List of Countries
  • For 7 days
  • Water Temperature
  • Weather Map
  • News
  • Weather Widgets
  • user-avatar
    Login

    Hourly Weather Zhigalino

    Today, 3 June, Wednesday

    Time Temperature Precipitation Wind Pressure Humidity
    00:00 +17°C° 0 mm 5 mps 752 mmHg 74%
    01:00 +16°C° 0 mm 5 mps 751 mmHg 74%
    02:00 +17°C° 0 mm 4 mps 751 mmHg 73%
    03:00 +17°C° 0 mm 4 mps 751 mmHg 71%
    04:00 +17°C° 0 mm 4 mps 751 mmHg 76%
    05:00 +18°C° 0 mm 4 mps 751 mmHg 74%
    06:00 +18°C° 0 mm 4 mps 751 mmHg 72%
    07:00 +19°C° 0 mm 5 mps 751 mmHg 69%
    08:00 +21°C° 0 mm 5 mps 751 mmHg 64%
    09:00 +23°C° 0 mm 5 mps 751 mmHg 59%
    10:00 +26°C° 0 mm 5 mps 751 mmHg 54%
    11:00 +27°C° 0 mm 6 mps 751 mmHg 49%
    12:00 +28°C° 0 mm 6 mps 751 mmHg 45%
    13:00 +29°C° 0 mm 6 mps 751 mmHg 41%
    14:00 +29°C° 0 mm 6 mps 751 mmHg 41%
    15:00 +29°C° 0 mm 6 mps 751 mmHg 41%
    16:00 +29°C° 0 mm 5 mps 751 mmHg 41%
    17:00 +28°C° 0 mm 5 mps 751 mmHg 45%
    18:00 +27°C° 0 mm 5 mps 750 mmHg 50%
    19:00 +26°C° 0 mm 5 mps 750 mmHg 54%
    20:00 +24°C° 0.1 mm 6 mps 750 mmHg 56%
    21:00 +23°C° 0.1 mm 6 mps 750 mmHg 57%
    22:00 +22°C° 0.1 mm 6 mps 750 mmHg 59%
    23:00 +22°C° 0 mm 7 mps 750 mmHg 62%

    Tomorrow, 4 June, Thursday

    Time Temperature Precipitation Wind Pressure Humidity
    00:00 +21°C° 0 mm 7 mps 750 mmHg 64%
    01:00 +21°C° 0 mm 7 mps 750 mmHg 67%
    02:00 +20°C° 0.1 mm 7 mps 749 mmHg 67%
    03:00 +20°C° 0.1 mm 7 mps 749 mmHg 67%
    04:00 +20°C° 0.1 mm 6 mps 749 mmHg 68%
    05:00 +20°C° 0.5 mm 6 mps 749 mmHg 70%
    06:00 +20°C° 0.5 mm 6 mps 749 mmHg 72%
    07:00 +20°C° 0.5 mm 7 mps 749 mmHg 74%
    08:00 +20°C° 0.7 mm 6 mps 749 mmHg 75%
    09:00 +20°C° 0.7 mm 6 mps 749 mmHg 77%
    10:00 +20°C° 0.7 mm 6 mps 750 mmHg 78%
    11:00 +20°C° 0.9 mm 7 mps 750 mmHg 81%
    12:00 +18°C° 0.9 mm 7 mps 750 mmHg 83%
    13:00 +18°C° 0.9 mm 8 mps 750 mmHg 85%
    14:00 +20°C° 0.2 mm 8 mps 750 mmHg 79%
    15:00 +21°C° 0.2 mm 8 mps 750 mmHg 73%
    16:00 +22°C° 0.2 mm 9 mps 750 mmHg 67%
    17:00 +21°C° 0.2 mm 7 mps 750 mmHg 70%
    18:00 +21°C° 0.2 mm 6 mps 750 mmHg 74%
    19:00 +20°C° 0.2 mm 5 mps 750 mmHg 77%
    20:00 +19°C° 0.5 mm 5 mps 751 mmHg 79%
    21:00 +19°C° 0.5 mm 5 mps 751 mmHg 81%
    22:00 +17°C° 0.5 mm 5 mps 751 mmHg 84%
    23:00 +17°C° 0 mm 5 mps 751 mmHg 81%

    Day after tomorrow, 5 June, Friday

    Time Temperature Precipitation Wind Pressure Humidity
    00:00 +16°C° 0 mm 5 mps 751 mmHg 78%
    01:00 +16°C° 0 mm 5 mps 751 mmHg 75%
    02:00 +16°C° 0 mm 5 mps 752 mmHg 73%
    03:00 +15°C° 0 mm 5 mps 752 mmHg 71%
    04:00 +15°C° 0 mm 5 mps 753 mmHg 69%
    05:00 +16°C° 0 mm 5 mps 753 mmHg 67%
    06:00 +17°C° 0 mm 5 mps 753 mmHg 66%
    07:00 +19°C° 0 mm 6 mps 753 mmHg 65%
    08:00 +20°C° 0 mm 6 mps 753 mmHg 62%
    09:00 +22°C° 0 mm 6 mps 754 mmHg 59%
    10:00 +23°C° 0 mm 6 mps 754 mmHg 56%
    11:00 +24°C° 0 mm 6 mps 754 mmHg 54%
    12:00 +26°C° 0 mm 5 mps 754 mmHg 52%
    13:00 +27°C° 0 mm 5 mps 754 mmHg 50%
    14:00 +27°C° 0.1 mm 5 mps 754 mmHg 51%
    15:00 +26°C° 0.1 mm 6 mps 754 mmHg 52%
    16:00 +26°C° 0.1 mm 6 mps 754 mmHg 52%
    17:00 +24°C° 0 mm 6 mps 754 mmHg 55%
    18:00 +25°C° 0 mm 5 mps 754 mmHg 58%
    19:00 +23°C° 0 mm 5 mps 754 mmHg 61%
    20:00 +21°C° 0 mm 5 mps 754 mmHg 62%
    21:00 +20°C° 0 mm 5 mps 754 mmHg 63%
    22:00 +19°C° 0 mm 5 mps 754 mmHg 64%
    23:00 +17°C° 0.1 mm 5 mps 754 mmHg 66%

    6 June, Saturday

    Time Temperature Precipitation Wind Pressure Humidity
    00:00 +17°C° 0.1 mm 5 mps 754 mmHg 67%
    01:00 +16°C° 0.1 mm 5 mps 754 mmHg 68%
    02:00 +16°C° 0.2 mm 5 mps 755 mmHg 70%
    03:00 +15°C° 0.2 mm 4 mps 755 mmHg 71%
    04:00 +15°C° 0.2 mm 4 mps 755 mmHg 73%
    05:00 +15°C° 0.2 mm 4 mps 755 mmHg 74%
    06:00 +16°C° 0.2 mm 5 mps 755 mmHg 76%
    07:00 +17°C° 0.2 mm 5 mps 755 mmHg 78%
    08:00 +17°C° 0.3 mm 5 mps 755 mmHg 76%
    09:00 +19°C° 0.3 mm 6 mps 756 mmHg 75%
    10:00 +20°C° 0.3 mm 6 mps 756 mmHg 73%
    11:00 +21°C° 0.3 mm 5 mps 756 mmHg 70%
    12:00 +22°C° 0.3 mm 5 mps 756 mmHg 67%
    13:00 +23°C° 0.3 mm 5 mps 756 mmHg 64%
    14:00 +23°C° 0.7 mm 5 mps 756 mmHg 63%
    15:00 +23°C° 0.7 mm 5 mps 756 mmHg 62%
    16:00 +23°C° 0.7 mm 4 mps 756 mmHg 62%
    17:00 +23°C° 0.2 mm 4 mps 756 mmHg 64%
    18:00 +22°C° 0.2 mm 4 mps 756 mmHg 66%
    19:00 +22°C° 0.2 mm 4 mps 756 mmHg 68%
    20:00 +20°C° 0 mm 4 mps 756 mmHg 72%
    21:00 +19°C° 0 mm 4 mps 757 mmHg 77%
    22:00 +17°C° 0 mm 4 mps 757 mmHg 81%
    23:00 +15°C° 0 mm 4 mps 757 mmHg 82%

    7 June, Sunday

    Time Temperature Precipitation Wind Pressure Humidity
    00:00 +16°C° 0 mm 3 mps 757 mmHg 84%
    01:00 +15°C° 0 mm 2 mps 757 mmHg 86%
    02:00 +15°C° 0 mm 2 mps 757 mmHg 85%
    03:00 +15°C° 0 mm 2 mps 757 mmHg 84%
    04:00 +15°C° 0 mm 2 mps 757 mmHg 82%
    05:00 +16°C° 0 mm 3 mps 757 mmHg 78%
    06:00 +17°C° 0 mm 3 mps 757 mmHg 73%
    07:00 +18°C° 0 mm 4 mps 757 mmHg 68%
    08:00 +19°C° 0 mm 4 mps 757 mmHg 63%
    09:00 +21°C° 0 mm 4 mps 758 mmHg 58%
    10:00 +23°C° 0 mm 4 mps 758 mmHg 53%
    11:00 +25°C° 0 mm 3 mps 758 mmHg 51%
    12:00 +26°C° 0 mm 3 mps 758 mmHg 48%
    13:00 +27°C° 0 mm 3 mps 758 mmHg 46%
    14:00 +27°C° 0.2 mm 2 mps 757 mmHg 46%
    15:00 +27°C° 0.2 mm 2 mps 757 mmHg 45%
    16:00 +27°C° 0.2 mm 2 mps 757 mmHg 45%
    17:00 +26°C° 0.2 mm 2 mps 757 mmHg 51%
    18:00 +26°C° 0.2 mm 1 mps 757 mmHg 57%
    19:00 +25°C° 0.2 mm 1 mps 757 mmHg 62%
    20:00 +23°C° 0.1 mm 1 mps 757 mmHg 66%
    21:00 +22°C° 0.1 mm 1 mps 757 mmHg 70%
    22:00 +19°C° 0.1 mm 2 mps 757 mmHg 73%
    23:00 +20°C° 0 mm 1 mps 757 mmHg 74%

    8 June, Monday

    Time Temperature Precipitation Wind Pressure Humidity
    00:00 +19°C° 0 mm 1 mps 757 mmHg 74%
    01:00 +19°C° 0 mm 1 mps 757 mmHg 74%
    02:00 +17°C° 0 mm 2 mps 757 mmHg 72%
    03:00 +17°C° 0 mm 2 mps 757 mmHg 71%
    04:00 +16°C° 0 mm 2 mps 757 mmHg 69%
    05:00 +17°C° 0 mm 2 mps 757 mmHg 66%
    06:00 +19°C° 0 mm 2 mps 757 mmHg 62%
    07:00 +20°C° 0 mm 2 mps 757 mmHg 59%
    08:00 +21°C° 0 mm 2 mps 757 mmHg 53%
    09:00 +24°C° 0 mm 2 mps 757 mmHg 48%
    10:00 +26°C° 0 mm 2 mps 757 mmHg 43%
    11:00 +27°C° 0 mm 3 mps 757 mmHg 41%
    12:00 +28°C° 0 mm 4 mps 757 mmHg 40%
    13:00 +29°C° 0 mm 4 mps 757 mmHg 38%
    14:00 +29°C° 0 mm 4 mps 757 mmHg 37%
    15:00 +29°C° 0 mm 4 mps 757 mmHg 36%
    16:00 +29°C° 0 mm 4 mps 757 mmHg 35%
    17:00 +28°C° 0 mm 4 mps 757 mmHg 40%
    18:00 +27°C° 0 mm 4 mps 757 mmHg 45%
    19:00 +26°C° 0 mm 3 mps 757 mmHg 51%
    20:00 +23°C° 0 mm 4 mps 757 mmHg 53%
    21:00 +22°C° 0 mm 4 mps 757 mmHg 55%
    22:00 +20°C° 0 mm 4 mps 758 mmHg 57%
    23:00 +20°C° 0 mm 4 mps 758 mmHg 57%
    Show more